www.pogodaiklimat.ru

Погода и климат >> Архив погоды >> Камерун >> Дуала


АРХИВ ПОГОДЫ в Дуале

Время (UTC), дата Ветер
(напр.,м/с)
 
Видим.   Явления Облачность Т
(С)
Тd
(С)
f
(%)
Тe
(С)
Тes
(С)
Комфортность P
(гПа)
Po
(гПа)
Тmin
(С)
Tmax
(С)
R
(мм)
R24
(мм)
S
(см)
03 15.08 штиль 0 6000 м слаб. дождь 10/6 400 м
[Cb cap Ac As]
+24.3 +23.1 93 +32 +32 очень
душно
1013.7 1012.7
06 15.08 штиль 0 10 км в посл. час дождь 9/8 400 м
[Cb cap]
+24.5 +23.8 96 +33 +33 очень
душно
1014.1 1013.1 +23.2 12
09 15.08 В 1 10 км 9/9 400 м
[Cb cap]
+25.9 +24.3 91 +36 +38 очень
душно
1015.2 1014.2
12 15.08 ЮЗ 3 10 км в посл. час дождь 9/8 400 м
[Cb cap Ac cuf]
+28.0 +25.5 86 +41 +43 опасность
перегрева
1013.9 1012.9 19
15 15.08 Ю 2 10 км 8/8 480 м
[Cb calv Ci sp]
+28.5 +23.7 75 +39 +41 очень
душно
1011.2 1010.2
18 15.08 штиль 0 10 км слаб. дождь 9/5 480 м
[Cb calv Ac As]
+25.5 +24.4 94 +36 +36 очень
душно
1012.3 1011.3 +29.0 19
21 15.08 штиль 0 10 км 9/9 400 м
[Cb cap]
+25.5 +24.4 94 +36 +36 очень
душно
1014.5 1013.5
00 16.08 штиль 0 10 км 9/9 400 м
[Cb cap]
+24.8 +24.4 98 +35 +35 очень
душно
1013.5 1012.5 1
03 16.08 штиль 0 6000 м в посл. час дождь 10/10 400 м
[Cb cap]
+24.2 +23.8 98 +33 +33 очень
душно
1012.9 1011.9
06 16.08 штиль 0 7000 м слаб. дождь 9/8 400 м
[Cb cap Ac cuf]
+24.6 +24.0 96 +34 +34 очень
душно
1013.9 1012.9 +23.2 23
09 16.08 штиль 0 4000 м гроза, ливневой дождь 10/8 300 м
[Cb cap As op]
+24.2 +23.8 98 +33 +34 очень
душно
1015.5 1014.5
15 16.08 ЮЗ 2 10 км в посл. час гроза 8/8 480 м
[Cb cap]
+28.2 +23.9 78 +39 +41 очень
душно
1011.3 1010.3
18 16.08 ЮЗ 3 10 км {гроза} 9/9 480 м
[Cb cap]
+26.5 +25.2 93 +38 +38 очень
душно
1011.8 1010.8 +29.5 11
21 16.08 штиль 0 10 км 9/9 480 м
[Cb cap]
+25.5 +24.4 94 +36 +36 очень
душно
1013.6 1012.6
03 17.08 штиль 0 6000 м слаб. дождь 10/10 400 м
[Cb cap]
+24.0 +23.4 96 +32 +32 очень
душно
1012.8 1011.8
06 17.08 штиль 0 4000 м гроза без осадков 10/10 400 м
[Cb cap]
+24.2 +23.7 97 +33 +33 очень
душно
1013.2 1012.2 +23.0 23
09 17.08 штиль 0 6000 м гроза без осадков 9/9 400 м
[Cb cap]
+26.8 +24.2 86 +37 +39 очень
душно
1014.6 1013.6
12 17.08 ЮЗ 3 10 км в посл. час гроза 9/8 480 м
[Cb cap]
+28.2 +23.9 78 +39 +42 очень
душно
1013.0 1012.0
15 17.08 ЮЗ 3 10 км 9/9 480 м
[Cb cap]
+27.5 +23.9 81 +38 +39 очень
душно
1011.4 1010.4
18 17.08 Ю 2 4000 м гроза, ливневой дождь 9/8 400 м
[Cb cap Ac As]
+25.2 +24.2 94 +35 +35 очень
душно
1012.2 1011.2 +29.5 2
21 17.08 Ю 1 10 км гроза без осадков 9/9 400 м
[Cb cap]
+24.5 +23.9 96 +33 +33 очень
душно
1013.1 1012.1
00 18.08 Ю 1 10 км {гроза, дождь} 9/9 400 м
[Cb cap]
+24.5 +23.9 96 +33 +33 очень
душно
1012.4 1011.4 7
03 18.08 штиль 0 6000 м слаб. дождь 9/8 400 м
[Cb cap]
+24.2 +23.6 96 +33 +33 очень
душно
1012.0 1011.0
12 18.08 Ю 3 10 км 9/6 480 м
[Cb cap Ac cuf]
+28.5 +25.3 83 +42 +45 опасность
перегрева
1012.8 1011.8
15 18.08 ЮЗ 2 10 км в посл. час дождь 9/9 480 м
[Cb cap]
+26.0 +24.1 89 +36 +37 очень
душно
1010.8 1009.8
18 18.08 ЮЗ 2 10 км {дождь} 8/4 480 м
[Cb cap Ac cuf]
+25.3 +23.2 88 +34 +34 очень
душно
1011.4 1010.4 +29.2 0.2
21 18.08 штиль 0 10 км 9/9 480 м
[Cb cap]
+24.5 +23.8 96 +33 +33 очень
душно
1013.5 1012.5
00 19.08 З 3 6000 м 10/10 300 м
[Cb cap]
+24.0 +23.6 98 +33 +33 очень
душно
1013.1 1012.1
06 19.08 штиль 0 2000 м гроза, ливневой дождь 10/10 90 м
[Cb cap]
+24.0 +23.3 96 +32 +32 очень
душно
1012.9 1011.9 +22.5 12
09 19.08 штиль 0 3000 м слаб. дождь 10/9 90 м
[Cb calv As op]
+24.2 +23.9 98 +33 +33 очень
душно
1015.2 1014.2
12 19.08 Ю 3 10 км слаб. дождь 9/9 400 м
[Cb cap]
+26.8 +24.9 89 +38 +40 очень
душно
1013.4 1012.4 57
15 19.08 ЮЗ 2 10 км 9/8 480 м
[Cb cap Ac cuf]
+27.8 +23.2 76 +37 +38 очень
душно
1011.1 1010.1
18 19.08 ЮЗ 2 10 км 9/8 400 м
[Cb calv Ac cuf]
+25.0 +23.5 91 +34 +34 очень
душно
1011.7 1010.7 +28.3 57
21 19.08 штиль 0 10 км 8/8 400 м
[Cb calv]
+25.0 +24.3 96 +35 +35 очень
душно
1013.8 1012.8
03 20.08 штиль 0 10 км 9/9 300 м
[Cb cap]
+24.5 +23.8 96 +33 +33 очень
душно
1012.6 1011.6
09 20.08 штиль 0 2500 м слаб. дождь 10/10 90 м
[Cb cap]
+24.5 +23.8 96 +33 +33 очень
душно
1014.7 1013.7
12 20.08 З 3 8000 м в посл. час дождь 9/8 400 м
[Cb cap]
+26.2 +24.0 88 +36 +39 очень
душно
1013.7 1012.7 9
15 20.08 З 3 10 км 8/6 400 м
[Cb cap Ac und]
+28.5 +23.7 75 +39 +41 очень
душно
1011.2 1010.2
18 20.08 штиль 0 10 км 9/9 400 м
[Cb cap Ac cuf]
+26.5 +23.6 84 +36 +36 очень
душно
1012.7 1011.7 +29.7 9
21 20.08 Ю 1 10 км 9/8 400 м
[Cb cap Ac cuf]
+25.7 +24.1 91 +36 +36 очень
душно
1014.7 1013.7
00 21.08 штиль 0 10 км 9/8 400 м
[Cb cap Ac cuf]
+25.0 +24.3 96 +35 +35 очень
душно
1013.9 1012.9
03 21.08 штиль 0 10 км гроза без осадков 9/9 400 м
[Cb cap]
+24.6 +24.2 98 +34 +34 очень
душно
1013.6 1012.6
06 21.08 штиль 0 10 км гроза, ливневой дождь 9/8 400 м
[Cb cap Ac As]
+24.2 +23.7 97 +33 +33 очень
душно
1014.6 1013.6 +23.0 46
09 21.08 З 2 10 км гроза без осадков 10/9 400 м
[Cb cap Ac As]
+26.7 +24.3 87 +37 +38 очень
душно
1016.0 1015.0
12 21.08 ЮЗ 4 10 км {гроза, дождь} 9/8 450 м
[Cb cap Ac cuf]
+28.2 +24.4 80 +40 +42 очень
душно
1013.7 1012.7 0.1
15 21.08 ЮЗ 2 10 км 8/6 480 м
[Cb cap Ac und]
+28.0 +24.6 82 +40 +42 очень
душно
1011.4 1010.4
18 21.08 штиль 0 10 км 9/5 480 м
[Cb calv Ac cuf]
+26.5 +24.4 88 +37 +37 очень
душно
1011.2 1012.0 +29.5
21 21.08 штиль 0 10 км 9/9 480 м
[Cb calv]
+25.5 +24.5 94 +36 +36 очень
душно
1014.4 1013.4
00 22.08 штиль 0 6000 м гроза, ливневой дождь 9/9 300 м
[Cb cap]
+24.8 +24.4 98 +35 +35 очень
душно
1013.6 1012.6 13

 

Местоположение метеостанции Дуала (Камерун): широта 4.00 долгота 9.73 высота над уровнем моря 9 м.

В архиве по умолчанию представлена погода в Дуале за последнюю неделю. Архивные данные за месяц целиком и за предыдущие месяцы, начиная с января 2011 года, Вы можете получить, выбрав интересующий диапазон дат из раскрывающегося списка и нажав кнопку "Ввод!".


*Определитесь, кто Вы:
робот инопланетянин человек

Внимание! Время в таблицах - всемирное. Для получения местного времени необходимо прибавить поправку, которая равна 1 ч.

Смотрите также архив погоды в соседних городах и на ближайших метеорологических станциях:

Погода в Малабо (Экваториальная Гвинея) (116 км)
Погода в Калабаре (Нигерия) (188 км)
Погода в Уйо (Нигерия) (232 км)
Погода в Бате (Экваториальная Гвинея) (233 км)
Погода в Битаме (Габон) (289 км)
Погода в Порт-Харкорте (Нигерия) (315 км)
Погода в Оеме (Габон) (338 км)
Погода в Энугу (Нигерия) (365 км)
Погода в Либревиле (Габон) (396 км)
Погода в Макурди (Нигерия) (436 км)

Пояснения к столбцам:

Ветер - указаны скорость ветра в м/с - средняя за 10 мин, порывы в срок и между сроками (в фигурных скобках) и направление, откуда дует ветер: С - северный, СВ - северо-восточный, В - восточный, ЮВ - юго-восточный, Ю - южный, ЮЗ - юго-западный, З - западный, СЗ - северо-западный.
Видимость - горизонтальная дальность видимости в метрах или километрах. При видимости от 1 до 10 км при отсутствии осадков обычно наблюдается дымка, при ухудшении видимости до 1 км и менее - туман. В сухую погоду видимость может ухудшаться дымом, пылью или мглою.
Явления - указаны атмосферные явления, наблюдавшиеся в срок или в последний час перед сроком; фигурными скобками обозначены явления, наблюдавшиеся между сроками (за 1-3 часа до срока); квадратными скобками обозначены град или гололедные отложения с указанием их диаметра в мм.
Облачность - указаны через наклонную черту общая и нижняя облачность в баллах и высота нижней границы облаков в метрах; квадратными скобками обозначены формы облаков: Ci - перистые, Cs - перисто-слоистые, Cc - перисто-кучевые, Ac - высококучевые, As - высокослоистые, Sc - слоисто-кучевые, Ns - слоисто-дождевые, Cu - кучевые, Cb - кучево-дождевые. Подробнее классификацию облаков см. в Атласе облаков (PDF).
T - Температура воздуха - температура, измеренная на высоте 2 м над землей.
Td - Температура точки росы - температура, при понижении до которой содержащийся в воздухе водяной пар достигнет насыщения.
f - Относительная влажность воздуха - влажноcть воздуха, измеренная на высоте 2 м над землей.
Te - Эффективная температура - температура, которую ощущает одетый по сезону человек в тени. Характеристика душности погоды. При расчете учитывается влияние влажности воздуха и скорости ветра на теплоощущения человека.
Tes - Эффективная температура на солнце - температура, которую ощущает человек, с поправкой на солнечный нагрев. Характеристика знойности погоды. Зависит от высоты солнца над горизонтом, облачности и скорости ветра. Ночью, в пасмурную погоду, а также при ветре 12 м/с и более поправка равна нулю.
P - Атмосферное давление - приведенное к уровню моря атмосферное давление.
Po - Атмосферное давление - измеренное на уровне метеостанции атмосферное давление.
Tmin - Минимальная температура - минимум температуры воздуха на высоте 2 м над землей.
Tmax - Максимальная температура - максимум температуры воздуха на высоте 2 м над землей.
R - Количество осадков - Количество выпавших осадков за период времени, мм. При наведении курсора мыши на число - период времени, за который выпало указанное количество осадков.
R24 - Количество осадков - Количество выпавших осадков за 24 часа, мм.
S - Снежный покров - Высота снежного покрова, см. При наведении курсора мыши на число - состояние снежного покрова и степень покрытия местности в баллах.